FLOCK 4Y 24

导读 | 星芒AI

FLOCK 4Y 24 是由 Planet 公司发射的一颗地球观测卫星,属于其“Flock”系列。该卫星搭载高分辨率多光谱成像仪,主要用于获取地球表面的详细图像,支持环境监测、农业管理、城市规划和灾害评估等多种应用。FLOCK 4Y 24 采用小型卫星设计,具有成本低、部署快、数据更新频率高等特点,是遥感技术普及化的重要组成部分。

基本信息
目录编号:
55020
目录名称:
FLOCK 4Y 24
国际标识:
2023-001M
轨道中心:
EARTH
卫星名称:
FLOCK 4Y 24
卫星全名:
--
卫星状态:
已陨落 最后检测时间 2025-09-21
发射日期:
2023-01-03 UTC
国别 :
美国 (US)
星等 :
--
轨道信息
数据来源 国际轨道数据
星历时间: 2025-09-21T07:18:21+0800
轨道信息已过期31天
半长轴: 6545.029km
偏心率: 0.0013192
轨道倾角: 97.340°
近地点辐角 278.648°
升交点赤经 342.467°
平近点角 81.333°
近地点: 158.259km
远地点: 175.529km
周期: 87.827分钟
每日圈数: 16.395907
详细信息
使用方式:
暂无